{"data":{"norad_id":82453,"intl_designator":"","name":"UNKNOWN","alt_names":[],"object_type":"UNKNOWN","status":"UNKNOWN","operator":null,"country":null,"launch_date":null,"launch_site_code":null,"launch_vehicle":null,"mission":null,"orbit_class":"UNKNOWN","rcs_meters":null,"size_class":null,"mass_kg":null,"dimensions":null,"purposes":[],"wikipedia_slug":null,"has_3d_model":false,"image_url":null,"decayed_at":null,"tle_current":{"epoch":"2026-05-22T08:14:06.049248Z","epoch_age_seconds":304915,"freshness":"STALE","line1":"1 82453U          26142.34312557  .00000005  00000+0  37863-3 0  9991","line2":"2 82453 102.2016 103.7762 0093148 271.3234  87.7159 12.39717485565964","mean_motion":12.39717485,"eccentricity":0.0093148,"inclination_deg":102.2016,"raan_deg":103.7762,"arg_perigee_deg":271.3234,"mean_anomaly_deg":87.7159,"bstar":0.00037863,"rev_number":56596,"period_min":116.15549650814,"perigee_km":1434.3450408543,"apogee_km":1581.2569109704,"semimajor_km":7885.9379759124,"source":"CELESTRAK","updated_at":"2026-05-25T13:38:11.189371Z"}}}